29-12-2023, 00:00:09,    196,    5.6,    6.6,   0.00,   0.00, 1003.1,   75.4, -999.0
29-12-2023, 00:00:19,    186,    1.0,    6.5,   0.00,   0.00, 1003.1,   75.6, -999.0
29-12-2023, 00:00:29,    206,    1.8,    6.6,   0.00,   0.00, 1003.1,   75.6, -999.0
29-12-2023, 00:00:39,    209,    3.8,    6.5,   0.00,   0.00, 1003.1,   75.9, -999.0
29-12-2023, 00:00:49,    230,    3.6,    6.6,   0.00,   0.00, 1003.1,   76.1, -999.0
29-12-2023, 00:00:59,    228,    4.7,    6.6,   0.00,   0.00, 1003.1,   76.3, -999.0
29-12-2023, 00:01:09,    224,    4.4,    6.6,   0.00,   0.00, 1003.1,   76.5, -999.0
29-12-2023, 00:01:19,    197,    4.2,    6.6,   0.00,   0.00, 1003.1,   76.7, -999.0
29-12-2023, 00:01:29,    243,    3.9,    6.6,   0.00,   0.00, 1003.1,   76.8, -999.0
29-12-2023, 00:01:39,    196,    1.8,    6.6,   0.00,   0.00, 1003.1,   76.8, -999.0
29-12-2023, 00:01:49,    233,    0.4,    6.5,   0.00,   0.00, 1003.0,   76.6, -999.0
29-12-2023, 00:01:59,    228,    2.7,    6.5,   0.00,   0.00, 1003.1,   76.9, -999.0
29-12-2023, 00:02:09,    187,    1.0,    6.5,   0.00,   0.00, 1003.0,   77.0, -999.0
29-12-2023, 00:02:19,    197,    0.4,    6.5,   0.00,   0.00, 1003.1,   77.0, -999.0
29-12-2023, 00:02:29,    219,    3.0,    6.5,   0.00,   0.00, 1003.1,   77.0, -999.0
29-12-2023, 00:02:39,    208,    4.4,    6.4,   0.00,   0.00, 1003.1,   77.4, -999.0
29-12-2023, 00:02:49,    218,    1.9,    6.5,   0.00,   0.00, 1003.1,   77.7, -999.0
29-12-2023, 00:02:59,    242,    4.0,    6.5,   0.00,   0.00, 1003.1,   77.7, -999.0
29-12-2023, 00:03:09,    241,    0.7,    6.5,   0.00,   0.00, 1003.0,   77.6, -999.0
29-12-2023, 00:03:19,    224,    1.5,    6.5,   0.00,   0.00, 1003.0,   77.7, -999.0
29-12-2023, 00:03:29,    191,    1.5,    6.5,   0.00,   0.00, 1003.1,   77.9, -999.0
29-12-2023, 00:03:39,    241,    1.6,    6.5,   0.00,   0.00, 1003.0,   78.0, -999.0
29-12-2023, 00:03:49,    235,    1.2,    6.5,   0.00,   0.00, 1003.0,   78.2, -999.0
29-12-2023, 00:03:59,    235,    1.9,    6.5,   0.00,   0.00, 1003.0,   78.1, -999.0
29-12-2023, 00:04:09,    232,    0.3,    6.4,   0.00,   0.00, 1003.0,   78.1, -999.0
29-12-2023, 00:04:19,    220,    2.0,    6.5,   0.00,   0.00, 1003.1,   78.5, -999.0
29-12-2023, 00:04:29,    256,    0.8,    6.5,   0.00,   0.00, 1003.0,   78.7, -999.0
29-12-2023, 00:04:39,    258,    1.1,    6.4,   0.00,   0.00, 1003.0,   78.5, -999.0
29-12-2023, 00:04:49,    205,    1.5,    6.5,   0.00,   0.00, 1003.1,   78.6, -999.0
29-12-2023, 00:04:59,    237,    2.2,    6.4,   0.00,   0.00, 1003.0,   79.1, -999.0
29-12-2023, 00:05:08,    230,    2.7,    6.5,   0.00,   0.00, 1003.0,   79.2, -999.0
29-12-2023, 00:05:19,    203,    0.6,    6.4,   0.00,   0.00, 1003.0,   79.2, -999.0
29-12-2023, 00:05:29,    214,    2.1,    6.4,   0.00,   0.00, 1003.0,   79.6, -999.0
29-12-2023, 00:05:39,    201,    2.6,    6.5,   0.00,   0.00, 1003.0,   80.0, -999.0
29-12-2023, 00:05:48,    195,    0.9,    6.5,   0.00,   0.00, 1003.0,   80.4, -999.0
29-12-2023, 00:05:59,    231,    1.9,    6.4,   0.00,   0.00, 1003.0,   80.7, -999.0
29-12-2023, 00:06:09,    279,    2.5,    6.4,   0.00,   0.00, 1003.0,   80.9, -999.0
29-12-2023, 00:06:18,    252,    2.2,    6.5,   0.00,   0.00, 1003.0,   80.6, -999.0
29-12-2023, 00:06:28,    249,    2.5,    6.5,   0.00,   0.00, 1003.0,   80.6, -999.0
29-12-2023, 00:06:39,    230,    0.2,    6.4,   0.00,   0.00, 1002.9,   80.6, -999.0
29-12-2023, 00:06:48,    239,    0.4,    6.3,   0.00,   0.00, 1002.9,   80.3, -999.0
29-12-2023, 00:06:58,    221,    0.6,    6.4,   0.00,   0.00, 1003.0,   80.1, -999.0
29-12-2023, 00:07:08,    212,    1.8,    6.4,   0.00,   0.00, 1003.1,   80.5, -999.0
29-12-2023, 00:07:18,    229,    1.5,    6.4,   0.00,   0.00, 1003.1,   80.8, -999.0
29-12-2023, 00:07:28,    306,    0.9,    6.4,   0.00,   0.00, 1003.0,   80.5, -999.0
29-12-2023, 00:07:38,    193,    0.7,    6.4,   0.00,   0.00, 1003.0,   80.2, -999.0
29-12-2023, 00:07:48,    236,    0.5,    6.4,   0.00,   0.00, 1003.0,   80.0, -999.0
29-12-2023, 00:07:58,    232,    2.6,    6.4,   0.00,   0.00, 1003.1,   80.2, -999.0
29-12-2023, 00:08:08,    225,    0.7,    6.4,   0.00,   0.00, 1003.0,   80.9, -999.0
29-12-2023, 00:08:18,    224,    0.1,    6.3,   0.00,   0.00, 1002.9,   80.9, -999.0
29-12-2023, 00:08:28,    291,    0.6,    6.3,   0.00,   0.00, 1003.0,   81.1, -999.0
29-12-2023, 00:08:38,    244,    1.5,    6.5,   0.00,   0.00, 1003.0,   81.2, -999.0
29-12-2023, 00:08:48,    220,    1.6,    6.4,   0.00,   0.00, 1003.0,   81.2, -999.0
29-12-2023, 00:08:58,    225,    4.0,    6.4,   0.00,   0.00, 1003.0,   81.7, -999.0
29-12-2023, 00:09:08,    224,    1.7,    6.4,   0.00,   0.00, 1003.0,   82.3, -999.0
29-12-2023, 00:09:18,    207,    1.2,    6.5,   0.00,   0.00, 1003.0,   82.8, -999.0
29-12-2023, 00:09:28,    207,    0.6,    6.4,   0.00,   0.00, 1002.9,   83.0, -999.0
29-12-2023, 00:09:38,    207,    0.0,    6.3,   0.00,   0.00, 1002.8,   82.3, -999.0
29-12-2023, 00:09:48,    227,    0.0,    6.3,   0.00,   0.00, 1002.9,   82.3, -999.0
29-12-2023, 00:09:58,    222,    1.6,    6.4,   0.00,   0.00, 1003.0,   82.7, -999.0
29-12-2023, 00:10:08,    218,    0.5,    6.4,   0.00,   0.00, 1002.9,   83.0, -999.0
29-12-2023, 00:10:18,    199,    0.9,    6.4,   0.00,   0.00, 1003.0,   83.4, -999.0
29-12-2023, 00:10:28,    199,    0.0,    6.4,   0.00,   0.00, 1002.9,   83.4, -999.0
29-12-2023, 00:10:38,    225,    0.8,    6.3,   0.00,   0.00, 1002.9,   83.4, -999.0
29-12-2023, 00:10:48,    224,    0.4,    6.3,   0.00,   0.00, 1003.0,   83.5, -999.0
29-12-2023, 00:10:58,    197,    0.6,    6.3,   0.00,   0.00, 1003.0,   83.8, -999.0
29-12-2023, 00:11:08,    197,    0.0,    6.2,   0.00,   0.00, 1002.9,   83.7, -999.0
29-12-2023, 00:11:18,    198,    0.1,    6.2,   0.00,   0.00, 1002.9,   83.9, -999.0
29-12-2023, 00:11:28,    249,    1.0,    6.4,   0.00,   0.00, 1003.0,   84.4, -999.0
29-12-2023, 00:11:38,    247,    2.1,    6.4,   0.00,   0.00, 1003.0,   85.0, -999.0
29-12-2023, 00:11:48,    176,    2.9,    6.4,   0.00,   0.00, 1003.0,   85.5, -999.0
29-12-2023, 00:11:58,    256,    1.0,    6.4,   0.00,   0.00, 1003.1,   86.2, -999.0
29-12-2023, 00:12:08,    252,    1.0,    6.4,   0.00,   0.00, 1003.1,   86.1, -999.0
29-12-2023, 00:12:17,    237,    2.1,    6.3,   0.00,   0.00, 1003.1,   85.6, -999.0
29-12-2023, 00:12:28,    227,    3.6,    6.4,   0.00,   0.00, 1003.1,   86.5, -999.0
29-12-2023, 00:12:38,    199,    2.3,    6.4,   0.00,   0.00, 1003.0,   87.2, -999.0
29-12-2023, 00:12:48,    191,    2.5,    6.4,   0.00,   0.00, 1003.0,   87.3, -999.0
29-12-2023, 00:12:58,    218,    2.6,    6.4,   0.00,   0.00, 1003.1,   87.4, -999.0
29-12-2023, 00:13:08,    234,    0.4,    6.3,   0.00,   0.00, 1003.0,   87.1, -999.0
29-12-2023, 00:13:18,    205,    1.0,    6.4,   0.00,   0.00, 1003.1,   86.9, -999.0
29-12-2023, 00:13:27,    187,    2.6,    6.4,   0.00,   0.00, 1003.1,   87.1, -999.0
29-12-2023, 00:13:38,    263,    2.4,    6.4,   0.00,   0.00, 1003.0,   87.4, -999.0
29-12-2023, 00:13:48,    203,    2.2,    6.4,   0.00,   0.00, 1003.0,   87.1, -999.0
29-12-2023, 00:13:57,    234,    1.9,    6.4,   0.00,   0.00, 1003.1,   87.1, -999.0
29-12-2023, 00:14:07,    194,    4.2,    6.4,   0.00,   0.00, 1003.0,   87.3, -999.0
29-12-2023, 00:14:18,    234,    4.3,    6.4,   0.00,   0.00, 1003.1,   87.2, -999.0
29-12-2023, 00:14:27,    220,    1.6,    6.4,   0.00,   0.00, 1003.1,   87.5, -999.0
29-12-2023, 00:14:37,    191,    1.5,    6.4,   0.00,   0.00, 1003.1,   87.3, -999.0
29-12-2023, 00:14:47,    200,    2.9,    6.4,   0.00,   0.00, 1003.0,   87.1, -999.0
29-12-2023, 00:14:58,    249,    1.8,    6.4,   0.00,   0.00, 1003.0,   86.8, -999.0
29-12-2023, 00:15:07,    173,    1.0,    6.4,   0.00,   0.00, 1003.0,   86.5, -999.0
29-12-2023, 00:15:17,    233,    0.1,    6.4,   0.00,   0.00, 1003.0,   85.5, -999.0
29-12-2023, 00:15:27,    262,    0.6,    6.4,   0.00,   0.00, 1003.0,   85.2, -999.0
29-12-2023, 00:15:37,    160,    1.6,    6.4,   0.00,   0.00, 1003.0,   84.8, -999.0
29-12-2023, 00:15:47,    235,    1.1,    6.4,   0.00,   0.00, 1003.0,   84.8, -999.0
29-12-2023, 00:15:57,    225,    0.0,    6.4,   0.00,   0.00, 1002.9,   84.4, -999.0
29-12-2023, 00:16:07,    213,    0.4,    6.4,   0.00,   0.00, 1003.0,   84.3, -999.0
29-12-2023, 00:16:17,    193,    2.4,    6.4,   0.00,   0.00, 1003.0,   84.8, -999.0
29-12-2023, 00:16:27,    220,    2.5,    6.4,   0.00,   0.00, 1003.0,   85.5, -999.0
29-12-2023, 00:16:37,    243,    4.2,    6.4,   0.00,   0.00, 1003.1,   85.8, -999.0
29-12-2023, 00:16:47,    219,    4.6,    6.4,   0.00,   0.00, 1003.0,   85.7, -999.0
29-12-2023, 00:16:57,    192,    2.5,    6.5,   0.00,   0.00, 1003.1,   85.5, -999.0
29-12-2023, 00:17:07,    262,    3.8,    6.5,   0.00,   0.00, 1003.0,   85.2, -999.0
29-12-2023, 00:17:17,    201,    5.7,    6.4,   0.00,   0.00, 1002.9,   84.9, -999.0
29-12-2023, 00:17:27,    188,    6.2,    6.5,   0.00,   0.00, 1002.9,   84.3, -999.0
29-12-2023, 00:17:37,    201,    4.3,    6.6,   0.00,   0.00, 1003.0,   83.1, -999.0
29-12-2023, 00:17:47,    186,    3.9,    6.6,   0.00,   0.00, 1003.0,   82.1, -999.0
29-12-2023, 00:17:57,    200,    4.6,    6.5,   0.00,   0.00, 1003.0,   81.3, -999.0
29-12-2023, 00:18:07,    256,    1.5,    6.6,   0.00,   0.00, 1002.9,   80.7, -999.0
29-12-2023, 00:18:17,    222,    2.1,    6.6,   0.00,   0.00, 1003.0,   80.3, -999.0
29-12-2023, 00:18:27,    221,    0.3,    6.5,   0.00,   0.00, 1002.9,   79.7, -999.0
29-12-2023, 00:18:37,    201,    0.9,    6.5,   0.00,   0.00, 1002.9,   79.3, -999.0
29-12-2023, 00:18:47,    202,    4.2,    6.6,   0.00,   0.00, 1002.9,   79.4, -999.0
29-12-2023, 00:18:57,    210,    5.2,    6.6,   0.00,   0.00, 1002.9,   79.5, -999.0
29-12-2023, 00:19:07,    215,    2.3,    6.6,   0.00,   0.00, 1002.9,   79.3, -999.0
29-12-2023, 00:19:17,    190,    1.2,    6.6,   0.00,   0.00, 1002.9,   79.4, -999.0
29-12-2023, 00:19:27,    291,    0.0,    6.5,   0.00,   0.00, 1002.9,   79.0, -999.0
29-12-2023, 00:19:37,    224,    0.8,    6.6,   0.00,   0.00, 1002.9,   79.0, -999.0
29-12-2023, 00:19:47,    199,    2.5,    6.6,   0.00,   0.00, 1002.9,   79.1, -999.0
29-12-2023, 00:19:57,    225,    3.5,    6.5,   0.00,   0.00, 1003.0,   79.0, -999.0
29-12-2023, 00:20:07,    253,    3.9,    6.6,   0.00,   0.00, 1003.0,   78.9, -999.0
29-12-2023, 00:20:17,    237,    2.2,    6.7,   0.00,   0.00, 1002.9,   78.8, -999.0
29-12-2023, 00:20:27,    207,    5.1,    6.6,   0.00,   0.00, 1002.9,   78.7, -999.0
29-12-2023, 00:20:36,    225,    3.2,    6.6,   0.00,   0.00, 1002.9,   78.6, -999.0
29-12-2023, 00:20:47,    234,    4.7,    6.6,   0.00,   0.00, 1003.0,   78.7, -999.0
29-12-2023, 00:20:57,    223,    1.3,    6.6,   0.00,   0.00, 1002.9,   78.6, -999.0
29-12-2023, 00:21:06,    200,    4.4,    6.6,   0.00,   0.00, 1002.9,   78.7, -999.0
29-12-2023, 00:21:17,    206,    6.4,    6.5,   0.00,   0.00, 1003.0,   78.9, -999.0
29-12-2023, 00:21:27,    228,    4.8,    6.6,   0.00,   0.00, 1002.9,   78.9, -999.0
29-12-2023, 00:21:36,    202,    2.8,    6.6,   0.00,   0.00, 1002.9,   78.9, -999.0
29-12-2023, 00:21:46,    205,    0.4,    6.6,   0.00,   0.00, 1002.9,   78.7, -999.0
29-12-2023, 00:21:57,    246,    0.0,    6.5,   0.00,   0.00, 1002.8,   78.0, -999.0
29-12-2023, 00:22:07,    219,    2.5,    6.6,   0.00,   0.00, 1003.0,   78.3, -999.0
29-12-2023, 00:22:16,    200,    4.4,    6.6,   0.00,   0.00, 1003.0,   78.3, -999.0
29-12-2023, 00:22:26,    218,    4.0,    6.6,   0.00,   0.00, 1003.0,   78.2, -999.0
29-12-2023, 00:22:37,    210,    2.5,    6.5,   0.00,   0.00, 1003.0,   78.3, -999.0
29-12-2023, 00:22:46,    244,    2.4,    6.6,   0.00,   0.00, 1003.0,   78.6, -999.0
29-12-2023, 00:22:56,    186,    2.3,    6.5,   0.00,   0.00, 1003.0,   78.8, -999.0
29-12-2023, 00:23:06,    243,    3.6,    6.6,   0.00,   0.00, 1003.0,   78.7, -999.0
29-12-2023, 00:23:16,    238,    5.3,    6.6,   0.00,   0.00, 1003.0,   78.8, -999.0
29-12-2023, 00:23:26,    216,    1.5,    6.6,   0.00,   0.00, 1003.0,   78.8, -999.0
29-12-2023, 00:23:36,    217,    1.3,    6.5,   0.00,   0.00, 1003.0,   79.0, -999.0
29-12-2023, 00:23:46,    176,    1.1,    6.5,   0.00,   0.00, 1003.0,   78.9, -999.0
29-12-2023, 00:23:56,    218,    1.1,    6.6,   0.00,   0.00, 1002.9,   78.9, -999.0
29-12-2023, 00:24:06,    195,    3.5,    6.5,   0.00,   0.00, 1003.0,   78.8, -999.0
29-12-2023, 00:24:16,    260,    1.9,    6.6,   0.00,   0.00, 1002.9,   78.8, -999.0
29-12-2023, 00:24:26,    234,    1.6,    6.6,   0.00,   0.00, 1002.9,   78.7, -999.0
29-12-2023, 00:24:36,    244,    0.7,    6.6,   0.00,   0.00, 1002.9,   78.6, -999.0
29-12-2023, 00:24:46,    239,    0.4,    6.4,   0.00,   0.00, 1002.9,   78.5, -999.0
29-12-2023, 00:24:56,    195,    1.4,    6.6,   0.00,   0.00, 1002.9,   78.6, -999.0
29-12-2023, 00:25:06,    243,    2.4,    6.7,   0.00,   0.00, 1002.9,   78.5, -999.0
29-12-2023, 00:25:16,    230,    2.4,    6.6,   0.00,   0.00, 1002.9,   78.4, -999.0
29-12-2023, 00:25:26,    198,    2.7,    6.6,   0.00,   0.00, 1002.9,   78.5, -999.0
29-12-2023, 00:25:36,    223,    1.4,    6.7,   0.00,   0.00, 1002.9,   78.4, -999.0
29-12-2023, 00:25:46,    222,    3.4,    6.6,   0.00,   0.00, 1003.0,   78.3, -999.0
29-12-2023, 00:25:56,    232,    2.4,    6.6,   0.00,   0.00, 1002.9,   78.3, -999.0
29-12-2023, 00:26:06,    245,    1.3,    6.6,   0.00,   0.00, 1002.9,   78.3, -999.0
29-12-2023, 00:26:16,    206,    0.4,    6.6,   0.00,   0.00, 1002.8,   78.1, -999.0
29-12-2023, 00:26:26,    253,    2.5,    6.6,   0.00,   0.00, 1003.0,   78.6, -999.0
29-12-2023, 00:26:36,    239,    3.3,    6.6,   0.00,   0.00, 1002.9,   78.8, -999.0
29-12-2023, 00:26:46,    239,    2.4,    6.6,   0.00,   0.00, 1002.9,   78.7, -999.0
29-12-2023, 00:26:56,    235,    1.5,    6.7,   0.00,   0.00, 1002.9,   78.6, -999.0
29-12-2023, 00:27:06,    225,    1.3,    6.5,   0.00,   0.00, 1002.9,   78.7, -999.0
29-12-2023, 00:27:16,    246,    0.2,    6.6,   0.00,   0.00, 1002.9,   78.7, -999.0
29-12-2023, 00:27:26,    206,    4.4,    6.6,   0.00,   0.00, 1002.9,   78.8, -999.0
29-12-2023, 00:27:36,    227,    1.8,    6.7,   0.00,   0.00, 1002.9,   78.8, -999.0
29-12-2023, 00:27:46,    225,    0.5,    6.6,   0.00,   0.00, 1002.9,   78.6, -999.0
29-12-2023, 00:27:56,    225,    0.0,    6.5,   0.00,   0.00, 1002.8,   78.4, -999.0
29-12-2023, 00:28:06,    191,    1.4,    6.6,   0.00,   0.00, 1002.9,   78.8, -999.0
29-12-2023, 00:28:16,    217,    2.9,    6.6,   0.00,   0.00, 1003.0,   78.7, -999.0
29-12-2023, 00:28:26,    194,    2.5,    6.6,   0.00,   0.00, 1003.0,   78.5, -999.0
29-12-2023, 00:28:36,    237,    1.2,    6.6,   0.00,   0.00, 1002.9,   78.4, -999.0
29-12-2023, 00:28:45,    253,    0.3,    6.6,   0.00,   0.00, 1002.9,   78.1, -999.0
29-12-2023, 00:28:56,    214,    3.0,    6.6,   0.00,   0.00, 1003.0,   78.2, -999.0
29-12-2023, 00:29:06,    237,    2.7,    6.7,   0.00,   0.00, 1003.0,   78.2, -999.0
29-12-2023, 00:29:15,    233,    3.6,    6.7,   0.00,   0.00, 1003.0,   78.1, -999.0
29-12-2023, 00:29:25,    247,    2.3,    6.6,   0.00,   0.00, 1003.0,   78.0, -999.0
29-12-2023, 00:29:36,    250,    2.2,    6.6,   0.00,   0.00, 1003.0,   77.8, -999.0
29-12-2023, 00:29:46,    197,    2.0,    6.6,   0.00,   0.00, 1003.0,   77.7, -999.0
29-12-2023, 00:29:55,    252,    2.0,    6.7,   0.00,   0.00, 1003.0,   77.9, -999.0
29-12-2023, 00:30:06,    248,    1.7,    6.7,   0.00,   0.00, 1003.0,   77.9, -999.0
29-12-2023, 00:30:16,    241,    0.8,    6.7,   0.00,   0.00, 1003.0,   77.7, -999.0
29-12-2023, 00:30:25,    228,    1.0,    6.6,   0.00,   0.00, 1003.0,   77.7, -999.0
29-12-2023, 00:30:35,    226,    1.6,    6.7,   0.00,   0.00, 1003.1,   77.6, -999.0
29-12-2023, 00:30:46,    236,    2.5,    6.7,   0.00,   0.00, 1003.1,   77.6, -999.0
29-12-2023, 00:30:55,    218,    4.1,    6.7,   0.00,   0.00, 1003.1,   77.6, -999.0
29-12-2023, 00:31:05,    225,    3.5,    6.7,   0.00,   0.00, 1003.1,   77.5, -999.0
29-12-2023, 00:31:15,    243,    3.3,    6.7,   0.00,   0.00, 1003.1,   77.4, -999.0
29-12-2023, 00:31:26,    219,    5.2,    6.7,   0.00,   0.00, 1003.1,   77.4, -999.0
29-12-2023, 00:31:35,    198,    2.3,    6.7,   0.00,   0.00, 1003.1,   77.2, -999.0
29-12-2023, 00:31:45,    212,    3.5,    6.6,   0.00,   0.00, 1003.1,   77.2, -999.0
29-12-2023, 00:31:55,    164,    3.3,    6.7,   0.00,   0.00, 1003.1,   77.1, -999.0
29-12-2023, 00:32:05,    243,    1.6,    6.8,   0.00,   0.00, 1003.1,   77.1, -999.0
29-12-2023, 00:32:15,    231,    1.0,    6.7,   0.00,   0.00, 1003.1,   76.9, -999.0
29-12-2023, 00:32:25,    299,    1.0,    6.7,   0.00,   0.00, 1003.1,   77.0, -999.0
29-12-2023, 00:32:35,    228,    4.2,    6.7,   0.00,   0.00, 1003.1,   77.0, -999.0
29-12-2023, 00:32:45,    260,    4.4,    6.7,   0.00,   0.00, 1003.1,   77.1, -999.0
29-12-2023, 00:32:55,    235,    3.2,    6.8,   0.00,   0.00, 1003.1,   77.1, -999.0
29-12-2023, 00:33:05,    204,    1.6,    6.7,   0.00,   0.00, 1003.1,   77.0, -999.0
29-12-2023, 00:33:15,    188,    1.4,    6.8,   0.00,   0.00, 1003.1,   77.0, -999.0
29-12-2023, 00:33:25,    201,    1.5,    6.8,   0.00,   0.00, 1003.1,   77.1, -999.0
29-12-2023, 00:33:35,    228,    0.4,    6.7,   0.00,   0.00, 1003.1,   76.9, -999.0
29-12-2023, 00:33:45,    187,    1.6,    6.7,   0.00,   0.00, 1003.1,   77.0, -999.0
29-12-2023, 00:33:55,    238,    1.9,    6.7,   0.00,   0.00, 1003.1,   77.2, -999.0
29-12-2023, 00:34:05,    204,    0.7,    6.7,   0.00,   0.00, 1003.1,   76.9, -999.0
29-12-2023, 00:34:15,    248,    3.9,    6.8,   0.00,   0.00, 1003.2,   76.9, -999.0
29-12-2023, 00:34:25,    244,    5.4,    6.8,   0.00,   0.00, 1003.1,   76.9, -999.0
29-12-2023, 00:34:35,    242,    2.5,    6.8,   0.00,   0.00, 1003.1,   76.8, -999.0
29-12-2023, 00:34:45,    235,    4.0,    6.7,   0.00,   0.00, 1003.1,   76.7, -999.0
29-12-2023, 00:34:55,    232,    3.5,    6.8,   0.00,   0.00, 1003.1,   76.5, -999.0
29-12-2023, 00:35:05,    206,    3.3,    6.8,   0.00,   0.00, 1003.1,   76.4, -999.0
29-12-2023, 00:35:15,    249,    1.9,    6.8,   0.00,   0.00, 1003.2,   76.1, -999.0
29-12-2023, 00:35:25,    297,    1.9,    6.8,   0.00,   0.00, 1003.1,   76.1, -999.0
29-12-2023, 00:35:35,    169,    1.8,    6.8,   0.00,   0.00, 1003.1,   76.1, -999.0
29-12-2023, 00:35:45,    195,    3.9,    6.8,   0.00,   0.00, 1003.2,   76.0, -999.0
29-12-2023, 00:35:55,    202,    4.9,    6.8,   0.00,   0.00, 1003.1,   75.9, -999.0
29-12-2023, 00:36:05,    248,    3.5,    6.7,   0.00,   0.00, 1003.1,   75.7, -999.0
29-12-2023, 00:36:15,    229,    2.6,    6.8,   0.00,   0.00, 1003.1,   75.5, -999.0
29-12-2023, 00:36:25,    203,    1.8,    6.8,   0.00,   0.00, 1003.1,   75.4, -999.0
29-12-2023, 00:36:35,    212,    1.6,    6.8,   0.00,   0.00, 1003.2,   75.4, -999.0
29-12-2023, 00:36:45,    212,    0.0,    6.8,   0.00,   0.00, 1003.0,   75.3, -999.0
29-12-2023, 00:36:54,    256,    1.0,    6.7,   0.00,   0.00, 1003.1,   75.2, -999.0
29-12-2023, 00:37:05,    228,    0.7,    6.7,   0.00,   0.00, 1003.1,   75.3, -999.0
29-12-2023, 00:37:15,    238,    2.7,    6.8,   0.00,   0.00, 1003.1,   75.4, -999.0
29-12-2023, 00:37:24,    215,    1.7,    6.8,   0.00,   0.00, 1003.2,   75.5, -999.0
29-12-2023, 00:37:34,    246,    2.8,    6.8,   0.00,   0.00, 1003.1,   75.7, -999.0
29-12-2023, 00:37:45,    219,    4.0,    6.8,   0.00,   0.00, 1003.1,   75.5, -999.0
29-12-2023, 00:37:55,    205,    3.7,    6.8,   0.00,   0.00, 1003.2,   75.6, -999.0
29-12-2023, 00:38:04,    219,    3.7,    6.8,   0.00,   0.00, 1003.1,   75.5, -999.0
29-12-2023, 00:38:14,    220,    2.7,    6.8,   0.00,   0.00, 1003.1,   75.4, -999.0
29-12-2023, 00:38:25,    208,    1.3,    6.8,   0.00,   0.00, 1003.1,   75.5, -999.0
29-12-2023, 00:38:34,    182,    1.2,    6.8,   0.00,   0.00, 1003.1,   75.3, -999.0
29-12-2023, 00:38:44,    182,    0.1,    6.7,   0.00,   0.00, 1003.0,   75.1, -999.0
29-12-2023, 00:38:54,    239,    2.0,    6.7,   0.00,   0.00, 1003.1,   75.3, -999.0
29-12-2023, 00:39:04,    244,    4.8,    6.8,   0.00,   0.00, 1003.1,   75.4, -999.0
29-12-2023, 00:39:14,    226,    2.1,    6.8,   0.00,   0.00, 1003.1,   75.4, -999.0
29-12-2023, 00:39:24,    186,    0.8,    6.8,   0.00,   0.00, 1003.1,   75.4, -999.0
29-12-2023, 00:39:35,    227,    1.7,    6.8,   0.00,   0.00, 1003.1,   75.3, -999.0
29-12-2023, 00:39:44,    241,    2.0,    6.8,   0.00,   0.00, 1003.1,   75.8, -999.0
29-12-2023, 00:39:54,    211,    0.5,    6.8,   0.00,   0.00, 1003.1,   75.8, -999.0
29-12-2023, 00:40:05,    223,    2.5,    6.7,   0.00,   0.00, 1003.1,   75.6, -999.0
29-12-2023, 00:40:14,    245,    2.7,    6.8,   0.00,   0.00, 1003.1,   75.8, -999.0
29-12-2023, 00:40:24,    192,    1.5,    6.8,   0.00,   0.00, 1003.2,   75.9, -999.0
29-12-2023, 00:40:34,    222,    2.7,    6.8,   0.00,   0.00, 1003.2,   75.8, -999.0
29-12-2023, 00:40:44,    255,    2.7,    6.8,   0.00,   0.00, 1003.2,   75.8, -999.0
29-12-2023, 00:40:54,    207,    3.3,    6.8,   0.00,   0.00, 1003.2,   75.6, -999.0
29-12-2023, 00:41:04,    219,    2.7,    6.8,   0.00,   0.00, 1003.2,   75.4, -999.0
29-12-2023, 00:41:14,    241,    4.9,    6.8,   0.00,   0.00, 1003.1,   75.1, -999.0
29-12-2023, 00:41:24,    213,    4.4,    6.8,   0.00,   0.00, 1003.2,   75.0, -999.0
29-12-2023, 00:41:34,    258,    2.5,    6.8,   0.00,   0.00, 1003.2,   74.9, -999.0
29-12-2023, 00:41:44,    253,    2.9,    6.9,   0.00,   0.00, 1003.1,   74.6, -999.0
29-12-2023, 00:41:54,    244,    3.2,    6.9,   0.00,   0.00, 1003.2,   74.4, -999.0
29-12-2023, 00:42:04,    235,    5.4,    6.9,   0.00,   0.00, 1003.2,   74.3, -999.0
29-12-2023, 00:42:14,    239,    6.0,    6.9,   0.00,   0.00, 1003.2,   74.1, -999.0
29-12-2023, 00:42:24,    216,    4.2,    7.0,   0.00,   0.00, 1003.2,   74.0, -999.0
29-12-2023, 00:42:34,    257,    3.7,    7.0,   0.00,   0.00, 1003.2,   73.7, -999.0
29-12-2023, 00:42:44,    266,    2.9,    6.9,   0.00,   0.00, 1003.2,   73.7, -999.0
29-12-2023, 00:42:54,    226,    5.2,    6.9,   0.00,   0.00, 1003.2,   73.5, -999.0
29-12-2023, 00:43:04,    235,    8.6,    7.0,   0.00,   0.00, 1003.2,   73.4, -999.0
29-12-2023, 00:43:14,    245,    7.1,    7.0,   0.00,   0.00, 1003.2,   73.3, -999.0
29-12-2023, 00:43:24,    242,    4.3,    7.0,   0.00,   0.00, 1003.2,   73.0, -999.0
29-12-2023, 00:43:34,    193,    3.8,    7.0,   0.00,   0.00, 1003.2,   73.0, -999.0
29-12-2023, 00:43:44,    243,    3.3,    7.0,   0.00,   0.00, 1003.1,   72.9, -999.0
29-12-2023, 00:43:54,    190,    4.1,    7.0,   0.00,   0.00, 1003.1,   72.6, -999.0
29-12-2023, 00:44:04,    211,    2.2,    7.0,   0.00,   0.00, 1003.2,   72.4, -999.0
29-12-2023, 00:44:14,    287,    1.6,    6.9,   0.00,   0.00, 1003.2,   72.4, -999.0
29-12-2023, 00:44:24,    236,    2.0,    7.0,   0.00,   0.00, 1003.2,   72.4, -999.0
29-12-2023, 00:44:33,    238,    6.1,    7.0,   0.00,   0.00, 1003.1,   72.3, -999.0
29-12-2023, 00:44:44,    204,    3.2,    7.0,   0.00,   0.00, 1003.2,   72.2, -999.0
29-12-2023, 00:44:54,    202,    4.4,    7.0,   0.00,   0.00, 1003.2,   72.2, -999.0
29-12-2023, 00:45:03,    240,    3.7,    7.0,   0.00,   0.00, 1003.1,   72.2, -999.0
29-12-2023, 00:45:14,    204,    1.8,    7.0,   0.00,   0.00, 1003.1,   72.3, -999.0
29-12-2023, 00:45:24,    234,    3.2,    7.0,   0.00,   0.00, 1003.1,   72.1, -999.0
29-12-2023, 00:45:33,    247,    3.6,    7.0,   0.00,   0.00, 1003.1,   72.2, -999.0
29-12-2023, 00:45:43,    249,    5.4,    6.9,   0.00,   0.00, 1003.1,   72.2, -999.0
29-12-2023, 00:45:54,    258,    2.4,    7.0,   0.00,   0.00, 1003.1,   72.3, -999.0
29-12-2023, 00:46:04,    192,    2.6,    7.0,   0.00,   0.00, 1003.1,   72.4, -999.0
29-12-2023, 00:46:13,    244,    3.6,    6.9,   0.00,   0.00, 1003.1,   72.5, -999.0
29-12-2023, 00:46:23,    185,    1.5,    7.0,   0.00,   0.00, 1003.1,   72.7, -999.0
29-12-2023, 00:46:34,    233,    0.9,    7.0,   0.00,   0.00, 1003.0,   72.7, -999.0
29-12-2023, 00:46:43,    196,    0.4,    6.9,   0.00,   0.00, 1003.0,   72.6, -999.0
29-12-2023, 00:46:53,    235,    2.0,    7.0,   0.00,   0.00, 1003.0,   72.7, -999.0